Theta_e
303 297 292 296 298 301 297 296 297 299 304 301 301 298 297 299 296 296 297 298 304 312 318 321 323 324 322 322 322 324 325 326 327 326 324 323 322 323 321 323 325 325 325 324
296 292 296 298 298 298 297 295 294 298 303 300 300 298 302 302 299 300 298 298 300 306 312 316 319 321 322 322 322 323 325 325 326 327 326 326 325 323 325 325 325 325 324 325
294 294 299 297 295 294 295 294 295 295 295 299 296 296 299 301 299 300 301 299 301 304 307 311 316 318 322 322 322 322 324 325 326 326 327 321 322 320 320 322 324 324 325 324
296 299 296 294 294 296 291 296 297 296 294 288 297 289 297 301 301 297 299 298 299 302 305 310 314 316 319 322 324 324 323 323 325 325 324 324 322 321 323 324 324 323 323 323
290 295 294 293 294 298 293 298 297 297 291 289 291 285 288 297 295 298 298 299 301 300 302 308 312 316 318 321 323 325 324 323 324 324 324 324 323 324 322 321 321 322 322 324
290 293 297 297 296 298 299 294 292 291 289 282 288 289 288 293 295 299 299 299 301 300 300 306 312 316 317 320 321 323 323 324 324 324 324 324 323 323 320 319 321 321 322 322
288 291 291 294 293 295 298 292 284 281 280 282 288 286 291 295 294 297 299 299 301 301 300 302 307 312 314 315 317 320 322 323 325 325 325 325 325 324 321 321 321 318 320 320
284 281 289 295 295 293 294 293 285 279 277 279 283 283 290 298 302 301 298 298 299 299 300 299 306 311 313 315 317 319 320 322 323 325 326 326 326 326 324 323 322 323 323 324
285 285 290 294 296 297 292 289 294 285 276 277 279 284 289 291 291 294 296 293 295 297 298 299 302 309 313 314 316 318 319 321 321 323 325 325 325 325 324 322 324 324 326 325
288 284 288 291 295 294 292 294 286 287 279 278 280 280 286 287 293 294 292 294 293 295 296 295 298 307 310 312 315 317 319 319 319 321 322 322 324 324 323 323 324 322 323 323
293 289 285 290 288 288 289 288 289 288 285 283 276 282 286 292 293 294 297 296 295 294 294 295 294 296 300 301 305 311 311 311 309 314 314 314 314 314 314 315 317 318 316 317
292 290 281 285 290 294 294 291 290 285 280 281 280 284 287 286 287 288 291 291 291 293 293 293 294 295 297 298 299 302 302 305 306 308 310 311 310 309 308 307 307 308 304 305
292 285 280 281 285 289 287 290 292 292 286 283 281 286 286 286 285 288 289 290 290 293 293 294 296 297 297 298 298 299 301 302 304 306 308 306 306 305 303 301 300 300 299 299
289 286 285 279 282 285 285 288 290 291 285 285 286 290 286 286 284 288 289 290 290 292 294 295 296 297 297 298 299 299 300 302 302 304 304 303 301 301 300 298 298 297 297 296
287 280 285 286 288 287 287 288 289 288 290 287 290 288 293 290 287 290 290 290 291 293 294 295 296 297 297 297 298 298 299 300 300 301 301 299 298 299 298 297 296 295 295 294
287 275 283 281 287 287 284 288 289 290 291 292 292 290 293 294 288 288 289 290 291 293 295 295 295 295 297 299 299 299 300 300 301 300 298 297 297 295 294 294 292 292 291 291
283 280 279 275 282 282 282 286 288 289 292 292 288 294 295 293 292 291 290 289 290 294 295 295 296 297 298 299 300 300 299 296 297 295 293 292 291 292 292 291 290 289 289 288
281 280 279 274 278 271 285 291 292 290 292 295 295 297 298 298 299 300 293 292 291 292 294 296 297 297 296 296 297 296 296 295 292 290 290 288 289 289 289 289 288 287 286 285
287 282 275 273 272 279 282 287 289 288 288 295 295 297 295 299 292 296 296 294 294 293 295 297 298 298 296 297 297 296 292 292 291 289 289 288 288 286 285 286 285 281 281 280
286 286 279 273 273 271 283 290 293 292 284 295 296 296 297 292 288 294 302 299 293 293 292 294 294 294 295 294 293 293 291 290 290 289 289 287 285 286 284 283 281 279 277 280
280 281 277 277 275 278 286 288 294 282 286 296 297 297 297 294 296 299 298 294 294 293 292 292 293 294 294 291 292 291 289 290 290 286 285 284 283 283 282 279 277 281 278 278
278 278 278 278 275 273 286 289 287 293 290 288 297 297 297 299 300 296 293 293 291 290 289 290 291 290 288 290 291 289 289 286 284 284 283 280 279 281 280 279 275 277 278 276
278 282 281 284 281 287 289 290 295 289 292 294 292 293 297 298 299 300 297 289 288 288 288 286 288 285 282 287 290 289 283 283 282 282 280 278 277 278 278 278 277 276 275 276
283 288 283 284 286 288 292 291 288 288 288 287 289 289 292 295 296 295 295 287 286 285 284 282 285 284 280 280 282 283 282 282 282 280 278 277 277 274 272 275 276 278 276 274
284 286 284 284 286 288 290 289 291 289 289 288 286 286 288 289 287 286 285 284 284 283 282 285 285 283 279 279 279 280 281 282 281 279 277 275 276 275 273 274 273 275 273 275
287 285 284 283 288 288 291 294 291 289 289 289 286 286 285 286 285 284 283 283 283 281 280 280 279 278 276 277 276 277 280 281 280 277 276 276 275 274 274 274 273 282 282 284
Wind_Speed
5 4 12 14 7 3 4 1 5 7 8 5 16 18 17 17 8 9 9 13 16 17 20 16 17 17 13 13 15 16 15 14 11 10 8 6 7 6 4 6 8 8 8 9
3 14 7 8 6 5 6 7 7 6 9 2 10 17 20 19 17 16 16 14 16 19 17 15 15 17 17 19 18 17 17 16 13 11 9 6 7 5 8 7 8 9 9 10
11 4 15 9 7 8 8 10 7 6 5 1 6 18 20 19 16 19 19 11 16 21 21 15 18 19 19 19 19 19 19 18 16 13 8 3 3 0 4 6 8 9 9 8
10 14 10 10 15 12 14 10 5 3 3 5 8 13 19 19 25 22 21 16 18 19 16 16 19 19 19 20 19 19 18 18 16 16 13 15 10 10 9 8 7 6 8 8
7 8 13 12 18 13 9 8 10 9 5 3 5 9 7 12 16 22 21 24 23 16 17 20 20 21 20 19 19 18 17 17 17 16 15 13 12 10 4 4 7 8 6 9
5 3 8 10 8 16 9 6 6 4 4 6 13 12 10 14 13 17 19 22 24 20 17 17 17 18 18 15 15 16 17 17 17 17 17 17 18 13 7 7 8 6 6 6
4 4 5 3 5 1 14 9 4 4 5 11 10 11 30 8 6 11 19 22 22 19 15 16 16 16 14 15 17 15 18 18 17 18 18 18 17 15 12 11 8 7 6 5
14 11 13 10 17 12 20 18 7 9 7 3 3 13 11 15 21 19 14 10 13 15 17 17 19 18 18 19 19 18 18 17 17 18 19 16 15 11 11 11 8 8 7 7
9 11 2 5 5 10 9 14 7 3 2 2 7 10 11 8 10 10 15 8 12 15 16 17 15 17 17 16 18 19 18 17 16 17 15 15 14 14 12 10 10 8 8 6
4 5 5 7 4 2 5 10 5 4 8 9 7 7 14 4 15 16 12 17 11 11 13 10 14 16 14 14 15 15 16 18 15 15 13 12 12 12 10 10 10 7 5 6
10 7 3 5 13 14 8 7 5 3 4 9 3 10 8 16 16 17 20 18 14 11 13 11 10 9 10 8 11 13 11 12 9 11 9 9 8 7 7 7 6 7 6 5
16 3 6 12 4 7 14 11 12 7 7 6 1 14 7 8 4 9 13 6 6 7 7 8 8 9 10 10 9 12 9 10 10 8 8 9 8 7 7 6 6 5 7 6
10 11 11 2 2 3 9 10 16 13 1 11 8 18 4 3 3 7 10 7 8 7 6 5 6 8 8 7 7 7 7 7 7 8 9 8 8 7 7 7 7 6 6 6
5 2 10 19 8 7 10 14 17 20 9 7 20 27 5 5 2 8 5 5 6 6 9 7 6 6 6 7 7 7 6 7 7 8 9 9 8 8 8 7 7 6 6 6
6 8 9 21 26 12 16 23 23 27 28 16 26 23 18 10 5 8 5 6 3 7 9 9 8 7 6 7 7 7 6 7 7 8 8 8 8 8 8 7 7 7 6 6
5 5 4 16 23 17 12 21 26 29 30 26 23 26 15 13 6 2 6 8 7 8 10 8 7 8 9 9 10 8 9 9 10 10 9 8 9 8 8 7 6 6 6 5
5 4 5 13 11 21 22 25 27 27 28 33 22 39 6 10 8 8 9 9 12 13 12 12 14 12 11 11 11 10 9 7 7 8 7 8 8 8 7 7 6 6 6 5
6 4 3 8 2 15 9 12 29 32 33 32 30 22 20 18 19 17 8 13 17 16 12 12 11 10 8 7 8 8 9 9 9 8 8 8 8 8 7 7 6 5 4 6
18 7 5 4 9 17 28 19 29 27 37 37 39 31 6 11 4 14 9 15 18 16 16 13 11 10 9 12 11 11 9 10 10 10 10 10 9 9 8 8 7 4 4 3
14 13 4 0 6 11 20 18 11 7 22 23 36 34 29 7 11 20 27 16 14 9 6 9 10 7 13 11 12 12 11 12 12 12 11 9 9 10 9 8 7 3 3 4
6 7 18 15 10 15 8 4 19 16 22 26 25 33 28 21 28 8 12 12 13 11 11 10 13 15 14 13 13 12 11 13 10 8 9 8 8 9 8 7 3 7 5 6
9 6 6 4 10 19 6 14 27 31 2 3 21 25 24 33 27 16 10 11 12 12 12 12 12 10 10 13 15 13 14 8 9 9 9 8 7 7 7 8 4 6 7 6
9 12 5 10 8 5 8 11 21 5 8 15 5 9 20 24 31 32 23 11 9 11 10 7 11 10 5 9 12 14 8 10 11 10 9 7 7 7 8 9 7 5 5 5
7 3 5 2 11 15 18 21 9 5 5 4 6 4 9 21 24 22 17 9 8 8 9 6 12 11 7 5 6 7 10 11 12 11 10 8 8 6 3 3 3 5 5 4
9 11 13 20 17 16 22 23 18 10 8 3 4 3 6 9 6 8 8 8 8 8 7 9 11 11 9 7 8 8 10 12 12 11 9 6 5 6 5 3 2 3 2 4
9 13 11 14 5 6 19 17 7 9 10 8 2 3 4 3 7 7 8 7 10 12 10 10 10 13 9 9 8 7 8 11 13 11 7 6 6 4 4 4 4 4 5 6
Wind_Direction
176 182 217 212 206 292 66 162 222 192 250 194 245 248 248 252 238 243 233 221 214 213 220 207 203 200 188 185 187 190 187 192 187 189 188 200 206 202 205 208 204 199 200 203
157 220 191 156 196 217 269 245 244 287 285 175 258 261 260 247 243 240 240 225 219 217 216 206 197 198 194 192 191 188 190 189 191 193 195 200 192 208 213 212 214 208 205 205
199 251 171 174 174 192 223 228 229 228 15 1 325 265 258 257 246 245 247 228 227 217 213 201 198 197 198 194 190 190 190 188 192 186 177 142 151 130 187 214 219 217 211 210
242 227 159 198 219 197 225 179 195 258 184 234 156 287 241 243 241 236 238 228 228 223 216 206 200 200 198 200 193 190 189 189 189 181 179 192 197 202 213 210 207 207 201 205
209 162 206 210 215 200 240 156 194 188 141 47 211 263 278 200 235 238 232 227 231 218 206 208 205 200 199 194 194 190 186 186 188 186 187 192 204 213 196 180 182 202 200 202
217 347 211 219 197 202 155 107 71 55 108 236 210 214 222 234 229 237 230 232 226 217 212 214 205 200 198 193 189 187 184 188 187 187 194 198 208 208 189 186 198 199 202 203
64 222 294 188 148 246 192 152 196 212 189 236 181 194 254 243 235 243 230 223 223 217 206 206 195 199 194 185 188 186 186 190 188 190 198 203 208 206 200 196 194 180 199 197
207 229 181 197 215 202 195 193 201 201 195 223 158 226 259 221 241 242 239 247 235 214 205 199 200 195 193 193 192 190 190 194 190 194 202 205 204 205 205 200 192 201 200 203
190 233 67 183 187 189 178 213 248 62 77 74 222 274 280 236 265 269 239 230 222 211 212 203 193 194 196 193 194 191 190 197 194 199 201 203 201 202 203 192 197 199 201 198
221 283 222 163 149 265 221 142 156 215 198 232 246 263 247 324 228 236 236 226 225 222 210 198 196 192 193 192 193 193 192 195 194 196 200 199 198 196 194 188 192 174 160 165
215 223 125 162 205 180 177 191 200 145 211 226 258 253 213 233 218 238 226 227 205 209 214 200 197 194 182 164 172 185 179 174 175 182 180 171 174 168 157 163 162 157 145 159
202 232 203 201 356 239 216 214 190 201 203 236 235 245 200 212 240 280 275 255 224 187 219 184 181 172 168 171 168 179 171 172 177 163 158 160 146 144 141 142 148 142 130 118
192 224 250 254 270 247 224 200 212 231 53 201 200 259 213 213 339 290 274 237 215 186 184 200 165 175 164 155 159 164 167 167 149 145 150 142 141 141 139 130 125 127 133 127
72 307 235 237 221 134 210 204 210 225 236 217 223 241 283 319 312 290 294 259 211 226 196 192 184 183 164 158 158 153 154 154 149 143 144 144 145 138 134 130 127 122 116 116
177 289 291 267 257 205 201 206 207 212 230 220 243 247 247 249 193 249 229 238 217 218 202 200 195 186 177 165 160 153 150 144 140 136 140 142 133 129 126 119 118 123 135 146
161 246 302 315 256 228 226 213 207 214 219 233 239 252 208 223 181 208 239 226 211 223 225 205 199 188 188 182 177 164 162 159 151 150 146 135 133 129 124 125 131 134 125 117
166 227 135 279 319 316 231 210 202 215 218 220 221 236 168 230 226 207 216 210 222 223 215 203 206 200 192 186 170 172 158 138 138 135 130 133 133 131 136 134 133 136 135 130
181 186 169 246 20 283 269 233 215 211 215 224 243 251 219 223 235 220 188 188 219 219 211 206 196 196 177 153 148 141 148 151 142 138 140 140 141 143 137 138 140 132 142 147
204 180 231 187 213 262 286 254 201 192 225 217 226 235 242 235 311 284 224 210 212 210 214 209 189 183 165 163 161 157 154 149 147 156 159 160 156 147 146 153 155 150 139 119
199 215 218 68 240 253 251 212 222 185 257 218 221 228 222 167 215 232 222 226 218 196 184 179 159 146 166 168 154 158 169 163 169 168 171 158 149 151 156 154 154 137 114 126
180 200 219 232 238 258 225 200 142 177 238 219 214 219 216 206 223 235 204 213 194 189 184 159 160 181 182 153 154 164 166 185 167 147 140 141 146 149 145 135 140 149 135 124
192 194 190 207 219 260 168 159 172 218 60 330 211 214 211 221 230 232 211 202 181 173 157 165 169 176 162 160 156 163 184 150 132 132 134 137 139 137 138 139 136 137 141 136
226 198 211 202 226 312 234 203 227 337 218 237 217 212 217 220 225 220 220 199 183 164 152 152 157 143 129 160 166 165 160 139 135 134 137 133 124 129 147 153 150 135 133 142
235 144 209 349 246 255 270 263 261 262 261 279 264 211 224 231 228 223 217 166 148 138 141 126 138 138 119 79 82 115 133 132 134 131 131 129 132 127 93 77 116 142 158 134
222 176 215 246 261 281 265 263 249 242 258 279 301 271 252 232 223 170 151 142 137 128 118 139 136 130 117 109 100 119 129 132 126 124 123 115 109 124 113 73 101 89 49 136
189 213 215 250 67 309 294 302 296 207 221 255 229 302 318 279 165 130 122 126 135 129 127 118 110 115 113 109 109 110 123 131 130 125 128 122 123 112 111 122 101 101 139 158